Year,Month,Day,Hour,Minute,Value (Times are PST for temperature in C)
2019,08,14,00,00,14.00
2019,08,14,00,01,14.00
2019,08,14,00,02,14.00
2019,08,14,00,03,14.00
2019,08,14,00,04,14.00
2019,08,14,00,05,14.00
2019,08,14,00,06,14.00
2019,08,14,00,07,14.00
2019,08,14,00,08,14.00
2019,08,14,00,09,14.00
2019,08,14,00,10,13.90
2019,08,14,00,11,13.90
2019,08,14,00,12,13.90
2019,08,14,00,13,13.90
2019,08,14,00,14,13.90
2019,08,14,00,15,13.90
2019,08,14,00,16,13.90
2019,08,14,00,17,13.90
2019,08,14,00,18,13.90
2019,08,14,00,19,13.80
2019,08,14,00,20,13.80
2019,08,14,00,21,13.80
2019,08,14,00,22,13.80
2019,08,14,00,23,13.80
2019,08,14,00,24,13.80
2019,08,14,00,25,13.80
2019,08,14,00,26,13.90
2019,08,14,00,27,13.90
2019,08,14,00,28,13.90
2019,08,14,00,29,14.00
2019,08,14,00,30,14.00
2019,08,14,00,31,14.00
2019,08,14,00,32,14.00
2019,08,14,00,33,14.10
2019,08,14,00,34,14.10
2019,08,14,00,35,14.10
2019,08,14,00,36,14.10
2019,08,14,00,37,14.10
2019,08,14,00,38,14.10
2019,08,14,00,39,14.10
2019,08,14,00,40,14.10
2019,08,14,00,41,14.10
2019,08,14,00,42,14.10
2019,08,14,00,43,14.10
2019,08,14,00,44,14.10
2019,08,14,00,45,14.10
2019,08,14,00,46,14.10
2019,08,14,00,47,14.10
2019,08,14,00,48,14.10
2019,08,14,00,49,14.20
2019,08,14,00,50,14.20
2019,08,14,00,51,14.20
2019,08,14,00,52,14.20
2019,08,14,00,53,14.20
2019,08,14,00,54,14.30
2019,08,14,00,55,14.30
2019,08,14,00,56,14.30
2019,08,14,00,57,14.30
2019,08,14,00,58,14.40
2019,08,14,00,59,14.40
2019,08,14,01,00,14.40
2019,08,14,01,01,14.40
2019,08,14,01,02,14.40
2019,08,14,01,03,14.40
2019,08,14,01,04,14.40
2019,08,14,01,05,14.40
2019,08,14,01,06,14.40
2019,08,14,01,07,14.50
2019,08,14,01,08,14.50
2019,08,14,01,09,14.50
2019,08,14,01,10,14.50
2019,08,14,01,11,14.50
2019,08,14,01,12,14.50
2019,08,14,01,13,14.40
2019,08,14,01,14,14.40
2019,08,14,01,15,14.30
2019,08,14,01,16,14.20
2019,08,14,01,17,14.10
2019,08,14,01,18,14.10
2019,08,14,01,19,14.10
2019,08,14,01,20,14.00
2019,08,14,01,21,14.00
2019,08,14,01,22,14.00
2019,08,14,01,23,14.00
2019,08,14,01,24,13.90
2019,08,14,01,25,13.90
2019,08,14,01,26,13.90
2019,08,14,01,27,13.90
2019,08,14,01,28,13.90
2019,08,14,01,29,13.90
2019,08,14,01,30,13.90
2019,08,14,01,31,13.90
2019,08,14,01,32,13.90
2019,08,14,01,33,13.80
2019,08,14,01,34,13.80
2019,08,14,01,35,13.80
2019,08,14,01,36,13.80
2019,08,14,01,37,13.80
2019,08,14,01,38,13.80
2019,08,14,01,39,13.80
2019,08,14,01,40,13.80
2019,08,14,01,41,13.80
2019,08,14,01,42,13.80
2019,08,14,01,43,13.80
2019,08,14,01,44,13.80
2019,08,14,01,45,13.70
2019,08,14,01,46,13.70
2019,08,14,01,47,13.70
2019,08,14,01,48,13.70
2019,08,14,01,49,13.70
2019,08,14,01,50,13.70
2019,08,14,01,51,13.70
2019,08,14,01,52,13.70
2019,08,14,01,53,13.70
2019,08,14,01,54,13.70
2019,08,14,01,55,13.70
2019,08,14,01,56,13.80
2019,08,14,01,57,13.80
2019,08,14,01,58,13.80
2019,08,14,01,59,13.80
2019,08,14,02,00,13.80
2019,08,14,02,01,13.90
2019,08,14,02,02,13.90
2019,08,14,02,03,13.90
2019,08,14,02,04,13.90
2019,08,14,02,05,13.90
2019,08,14,02,06,13.90
2019,08,14,02,07,13.90
2019,08,14,02,08,14.00
2019,08,14,02,09,14.00
2019,08,14,02,10,14.00
2019,08,14,02,11,14.00
2019,08,14,02,12,14.10
2019,08,14,02,13,14.10
2019,08,14,02,14,14.10
2019,08,14,02,15,14.10
2019,08,14,02,16,14.10
2019,08,14,02,17,14.10
2019,08,14,02,18,14.10
2019,08,14,02,19,14.10
2019,08,14,02,20,14.10
2019,08,14,02,21,14.20
2019,08,14,02,22,14.20
2019,08,14,02,23,14.20
2019,08,14,02,24,14.20
2019,08,14,02,25,14.20
2019,08,14,02,26,14.20
2019,08,14,02,27,14.20
2019,08,14,02,28,14.20
2019,08,14,02,29,14.20
2019,08,14,02,30,14.10
2019,08,14,02,31,14.10
2019,08,14,02,32,14.10
2019,08,14,02,33,14.10
2019,08,14,02,34,14.10
2019,08,14,02,35,14.10
2019,08,14,02,36,14.10
2019,08,14,02,37,14.10
2019,08,14,02,38,14.10
2019,08,14,02,39,14.10
2019,08,14,02,40,14.10
2019,08,14,02,41,14.10
2019,08,14,02,42,14.10
2019,08,14,02,43,14.00
2019,08,14,02,44,14.00
2019,08,14,02,45,14.00
2019,08,14,02,46,14.00
2019,08,14,02,47,14.00
2019,08,14,02,48,14.00
2019,08,14,02,49,14.00
2019,08,14,02,50,14.00
2019,08,14,02,51,14.00
2019,08,14,02,52,14.00
2019,08,14,02,53,14.00
2019,08,14,02,54,14.00
2019,08,14,02,55,14.00
2019,08,14,02,56,14.00
2019,08,14,02,57,14.00
2019,08,14,02,58,14.00
2019,08,14,02,59,14.00
2019,08,14,03,00,14.00
2019,08,14,03,01,14.00
2019,08,14,03,02,14.00
2019,08,14,03,03,14.00
2019,08,14,03,04,14.00
2019,08,14,03,05,14.00
2019,08,14,03,06,14.00
2019,08,14,03,07,14.00
2019,08,14,03,08,13.90
2019,08,14,03,09,14.00
2019,08,14,03,10,14.00
2019,08,14,03,11,14.00
2019,08,14,03,12,14.00
2019,08,14,03,13,14.00
2019,08,14,03,14,14.00
2019,08,14,03,15,14.00
2019,08,14,03,16,14.00
2019,08,14,03,17,14.00
2019,08,14,03,18,14.00
2019,08,14,03,19,14.00
2019,08,14,03,20,13.90
2019,08,14,03,21,13.90
2019,08,14,03,22,13.90
2019,08,14,03,23,13.90
2019,08,14,03,24,13.90
2019,08,14,03,25,13.90
2019,08,14,03,26,13.90
2019,08,14,03,27,13.90
2019,08,14,03,28,13.90
2019,08,14,03,29,13.90
2019,08,14,03,30,13.90
2019,08,14,03,31,13.90
2019,08,14,03,32,13.90
2019,08,14,03,33,13.90
2019,08,14,03,34,13.90
2019,08,14,03,35,13.90
2019,08,14,03,36,13.90
2019,08,14,03,37,13.80
2019,08,14,03,38,13.80
2019,08,14,03,39,13.80
2019,08,14,03,40,13.80
2019,08,14,03,41,13.80
2019,08,14,03,42,13.80
2019,08,14,03,43,13.80
2019,08,14,03,44,13.80
2019,08,14,03,45,13.80
2019,08,14,03,46,13.80
2019,08,14,03,47,13.80
2019,08,14,03,48,13.80
2019,08,14,03,49,13.80
2019,08,14,03,50,13.80
2019,08,14,03,51,13.80
2019,08,14,03,52,13.80
2019,08,14,03,53,13.80
2019,08,14,03,54,13.80
2019,08,14,03,55,13.80
2019,08,14,03,56,13.80
2019,08,14,03,57,13.80
2019,08,14,03,58,13.80
2019,08,14,03,59,13.80
2019,08,14,04,00,13.90
2019,08,14,04,01,13.90
2019,08,14,04,02,13.90
2019,08,14,04,03,13.90
2019,08,14,04,04,13.90
2019,08,14,04,05,13.90
2019,08,14,04,06,13.90
2019,08,14,04,07,13.90
2019,08,14,04,08,13.90
2019,08,14,04,09,13.90
2019,08,14,04,10,13.80
2019,08,14,04,11,13.90
2019,08,14,04,12,13.80
2019,08,14,04,13,13.80
2019,08,14,04,14,13.80
2019,08,14,04,15,13.80
2019,08,14,04,16,13.80
2019,08,14,04,17,13.80
2019,08,14,04,18,13.80
2019,08,14,04,19,13.80
2019,08,14,04,20,13.80
2019,08,14,04,21,13.80
2019,08,14,04,22,13.90
2019,08,14,04,23,13.90
2019,08,14,04,24,13.90
2019,08,14,04,25,13.90
2019,08,14,04,26,13.90
2019,08,14,04,27,13.90
2019,08,14,04,28,13.90
2019,08,14,04,29,13.90
2019,08,14,04,30,14.00
2019,08,14,04,31,14.00
2019,08,14,04,32,14.00
2019,08,14,04,33,14.00
2019,08,14,04,34,14.00
2019,08,14,04,35,14.10
2019,08,14,04,36,14.10
2019,08,14,04,37,14.10
2019,08,14,04,38,14.10
2019,08,14,04,39,14.10
2019,08,14,04,40,14.10
2019,08,14,04,41,14.10
2019,08,14,04,42,14.10
2019,08,14,04,43,14.00
2019,08,14,04,44,14.00
2019,08,14,04,45,14.00
2019,08,14,04,46,14.00
2019,08,14,04,47,13.90
2019,08,14,04,48,13.90
2019,08,14,04,49,13.90
2019,08,14,04,50,13.90
2019,08,14,04,51,13.90
2019,08,14,04,52,13.90
2019,08,14,04,53,13.80
2019,08,14,04,54,13.80
2019,08,14,04,55,13.80
2019,08,14,04,56,13.80
2019,08,14,04,57,13.80
2019,08,14,04,58,13.80
2019,08,14,04,59,13.80
2019,08,14,05,00,13.80
2019,08,14,05,01,13.80
2019,08,14,05,02,13.80
2019,08,14,05,03,13.80
2019,08,14,05,04,13.80
2019,08,14,05,05,13.80
2019,08,14,05,06,13.80
2019,08,14,05,07,13.80
2019,08,14,05,08,13.80
2019,08,14,05,09,13.80
2019,08,14,05,10,13.80
2019,08,14,05,11,13.80
2019,08,14,05,12,13.80
2019,08,14,05,13,13.70
2019,08,14,05,14,13.70
2019,08,14,05,15,13.70
2019,08,14,05,16,13.70
2019,08,14,05,17,13.70
2019,08,14,05,18,13.70
2019,08,14,05,19,13.70
2019,08,14,05,20,13.60
2019,08,14,05,21,13.60
2019,08,14,05,22,13.60
2019,08,14,05,23,13.60
2019,08,14,05,24,13.60
2019,08,14,05,25,13.50
2019,08,14,05,26,13.50
2019,08,14,05,27,13.50
2019,08,14,05,28,13.50
2019,08,14,05,29,13.50
2019,08,14,05,30,13.50
2019,08,14,05,31,13.40
2019,08,14,05,32,13.40
2019,08,14,05,33,13.40
2019,08,14,05,34,13.40
2019,08,14,05,35,13.40
2019,08,14,05,36,13.40
2019,08,14,05,37,13.40
2019,08,14,05,38,13.30
2019,08,14,05,39,13.30
2019,08,14,05,40,13.30
2019,08,14,05,41,13.30
2019,08,14,05,42,13.30
2019,08,14,05,43,13.30
2019,08,14,05,44,13.30
2019,08,14,05,45,13.20
2019,08,14,05,46,13.20
2019,08,14,05,47,13.20
2019,08,14,05,48,13.20
2019,08,14,05,49,13.20
2019,08,14,05,50,13.20
2019,08,14,05,51,13.20
2019,08,14,05,52,13.20
2019,08,14,05,53,13.20
2019,08,14,05,54,13.20
2019,08,14,05,55,13.20
2019,08,14,05,56,13.20
2019,08,14,05,57,13.20
2019,08,14,05,58,13.10
2019,08,14,05,59,13.10
2019,08,14,06,00,13.10
2019,08,14,06,01,13.10
2019,08,14,06,02,13.10
2019,08,14,06,03,13.10
2019,08,14,06,04,13.00
2019,08,14,06,05,13.00
2019,08,14,06,06,13.00
2019,08,14,06,07,13.00
2019,08,14,06,08,13.00
2019,08,14,06,09,13.00
2019,08,14,06,10,13.00
2019,08,14,06,11,13.00
2019,08,14,06,12,13.00
2019,08,14,06,13,13.00
2019,08,14,06,14,13.00
2019,08,14,06,15,13.00
2019,08,14,06,16,13.00
2019,08,14,06,17,13.10
2019,08,14,06,18,13.10
2019,08,14,06,19,13.10
2019,08,14,06,20,13.10
2019,08,14,06,21,13.10
2019,08,14,06,22,13.10
2019,08,14,06,23,13.10
2019,08,14,06,24,13.10
2019,08,14,06,25,13.10
2019,08,14,06,26,13.10
2019,08,14,06,27,13.10
2019,08,14,06,28,13.10
2019,08,14,06,29,13.10
2019,08,14,06,30,13.10
2019,08,14,06,31,13.10
2019,08,14,06,32,13.10
2019,08,14,06,33,13.10
2019,08,14,06,34,13.10
2019,08,14,06,35,13.10
2019,08,14,06,36,13.10
2019,08,14,06,37,13.10
2019,08,14,06,38,13.10
2019,08,14,06,39,13.10
2019,08,14,06,40,13.10
2019,08,14,06,41,13.20
2019,08,14,06,42,13.20
2019,08,14,06,43,13.20
2019,08,14,06,44,13.20
2019,08,14,06,45,13.20
2019,08,14,06,46,13.20
2019,08,14,06,47,13.20
2019,08,14,06,48,13.20
2019,08,14,06,49,13.20
2019,08,14,06,50,13.20
2019,08,14,06,51,13.30
2019,08,14,06,52,13.30
2019,08,14,06,53,13.30
2019,08,14,06,54,13.30
2019,08,14,06,55,13.40
2019,08,14,06,56,13.40
2019,08,14,06,57,13.50
2019,08,14,06,58,13.50
2019,08,14,06,59,13.60
2019,08,14,07,00,13.60
2019,08,14,07,01,13.70
2019,08,14,07,02,13.70
2019,08,14,07,03,13.70
2019,08,14,07,04,13.80
2019,08,14,07,05,13.80
2019,08,14,07,06,13.80
2019,08,14,07,07,13.80
2019,08,14,07,08,13.80
2019,08,14,07,09,13.80
2019,08,14,07,10,13.90
2019,08,14,07,11,13.90
2019,08,14,07,12,13.90
2019,08,14,07,13,13.90
2019,08,14,07,14,14.00
2019,08,14,07,15,14.00
2019,08,14,07,16,14.10
2019,08,14,07,17,14.10
2019,08,14,07,18,14.10
2019,08,14,07,19,14.20
2019,08,14,07,20,14.20
2019,08,14,07,21,14.20
2019,08,14,07,22,14.20
2019,08,14,07,23,14.30
2019,08,14,07,24,14.30
2019,08,14,07,25,14.30
2019,08,14,07,26,14.40
2019,08,14,07,27,14.50
2019,08,14,07,28,14.50
2019,08,14,07,29,14.60
2019,08,14,07,30,14.70
2019,08,14,07,31,14.70
2019,08,14,07,32,14.70
2019,08,14,07,33,14.80
2019,08,14,07,34,14.80
2019,08,14,07,35,14.80
2019,08,14,07,36,14.80
2019,08,14,07,37,14.90
2019,08,14,07,38,15.00
2019,08,14,07,39,15.00
2019,08,14,07,40,15.10
2019,08,14,07,41,15.20
2019,08,14,07,42,15.20
2019,08,14,07,43,15.20
2019,08,14,07,44,15.20
2019,08,14,07,45,15.20
2019,08,14,07,46,15.20
2019,08,14,07,47,15.20
2019,08,14,07,48,15.20
2019,08,14,07,49,15.20
2019,08,14,07,50,15.30
2019,08,14,07,51,15.40
2019,08,14,07,52,15.50
2019,08,14,07,53,15.60
2019,08,14,07,54,15.60
2019,08,14,07,55,15.70
2019,08,14,07,56,15.70
2019,08,14,07,57,15.70
2019,08,14,07,58,15.80
2019,08,14,07,59,15.90
2019,08,14,08,00,16.00
2019,08,14,08,01,16.10
2019,08,14,08,02,16.20
2019,08,14,08,03,16.30
2019,08,14,08,04,16.40
2019,08,14,08,05,16.60
2019,08,14,08,06,16.70
2019,08,14,08,07,16.80
2019,08,14,08,08,16.90
2019,08,14,08,09,17.00
2019,08,14,08,10,17.00
2019,08,14,08,11,17.10
2019,08,14,08,12,17.10
2019,08,14,08,13,17.20
2019,08,14,08,14,17.20
2019,08,14,08,15,17.10
2019,08,14,08,16,17.00
2019,08,14,08,17,17.00
2019,08,14,08,18,16.90
2019,08,14,08,19,16.80
2019,08,14,08,20,16.80
2019,08,14,08,21,16.60
2019,08,14,08,22,16.60
2019,08,14,08,23,16.50
2019,08,14,08,24,16.40
2019,08,14,08,25,16.30
2019,08,14,08,26,16.20
2019,08,14,08,27,16.20
2019,08,14,08,28,16.10
2019,08,14,08,29,16.10
2019,08,14,08,30,16.00
2019,08,14,08,31,15.90
2019,08,14,08,32,15.90
2019,08,14,08,33,15.90
2019,08,14,08,34,15.90
2019,08,14,08,35,15.90
2019,08,14,08,36,15.90
2019,08,14,08,37,15.90
2019,08,14,08,38,15.90
2019,08,14,08,39,15.80
2019,08,14,08,40,15.80
2019,08,14,08,41,15.80
2019,08,14,08,42,15.80
2019,08,14,08,43,15.80
2019,08,14,08,44,15.80
2019,08,14,08,45,15.80
2019,08,14,08,46,15.80
2019,08,14,08,47,15.80
2019,08,14,08,48,15.80
2019,08,14,08,49,15.80
2019,08,14,08,50,15.80
2019,08,14,08,51,15.70
2019,08,14,08,52,15.60
2019,08,14,08,53,15.50
2019,08,14,08,54,15.40
2019,08,14,08,55,15.30
2019,08,14,08,56,15.20
2019,08,14,08,57,15.20
2019,08,14,08,58,15.20
2019,08,14,08,59,15.20
2019,08,14,09,00,15.20
2019,08,14,09,01,15.20
2019,08,14,09,02,15.30
2019,08,14,09,03,15.30
2019,08,14,09,04,15.40
2019,08,14,09,05,15.40
2019,08,14,09,06,15.50
2019,08,14,09,07,15.50
2019,08,14,09,08,15.60
2019,08,14,09,09,15.70
2019,08,14,09,10,15.80
2019,08,14,09,11,15.80
2019,08,14,09,12,15.80
2019,08,14,09,13,15.80
2019,08,14,09,14,15.80
2019,08,14,09,15,15.80
2019,08,14,09,16,15.70
2019,08,14,09,17,15.70
2019,08,14,09,18,15.70
2019,08,14,09,19,15.70
2019,08,14,09,20,15.70
2019,08,14,09,21,15.70
2019,08,14,09,22,15.80
2019,08,14,09,23,15.80
2019,08,14,09,24,15.90
2019,08,14,09,25,16.00
2019,08,14,09,26,16.10
2019,08,14,09,27,16.20
2019,08,14,09,28,16.30
2019,08,14,09,29,16.40
2019,08,14,09,30,16.50
2019,08,14,09,31,16.60
2019,08,14,09,32,16.70
2019,08,14,09,33,16.70
2019,08,14,09,34,16.80
2019,08,14,09,35,16.90
2019,08,14,09,36,17.00
2019,08,14,09,37,17.10
2019,08,14,09,38,17.20
2019,08,14,09,39,17.30
2019,08,14,09,40,17.40
2019,08,14,09,41,17.50
2019,08,14,09,42,17.50
2019,08,14,09,43,17.60
2019,08,14,09,44,17.50
2019,08,14,09,45,17.40
2019,08,14,09,46,17.30
2019,08,14,09,47,17.20
2019,08,14,09,48,17.20
2019,08,14,09,49,17.20
2019,08,14,09,50,17.10
2019,08,14,09,51,17.00
2019,08,14,09,52,16.80
2019,08,14,09,53,16.70
2019,08,14,09,54,16.60
2019,08,14,09,55,16.50
2019,08,14,09,56,16.40
2019,08,14,09,57,16.20
2019,08,14,09,58,16.10
2019,08,14,09,59,16.00
2019,08,14,10,00,15.90
2019,08,14,10,01,15.90
2019,08,14,10,02,15.80
2019,08,14,10,03,15.80
2019,08,14,10,04,15.80
2019,08,14,10,05,15.80
2019,08,14,10,06,15.80
2019,08,14,10,07,15.70
2019,08,14,10,08,15.60
2019,08,14,10,09,15.50
2019,08,14,10,10,15.40
2019,08,14,10,11,15.40
2019,08,14,10,12,15.30
2019,08,14,10,13,15.30
2019,08,14,10,14,15.30
2019,08,14,10,15,15.30
2019,08,14,10,16,15.30
2019,08,14,10,17,15.30
2019,08,14,10,18,15.40
2019,08,14,10,19,15.30
2019,08,14,10,20,15.30
2019,08,14,10,21,15.30
2019,08,14,10,22,15.30
2019,08,14,10,23,15.30
2019,08,14,10,24,15.40
2019,08,14,10,25,15.40
2019,08,14,10,26,15.50
2019,08,14,10,27,15.60
2019,08,14,10,28,15.70
2019,08,14,10,29,15.70
2019,08,14,10,30,15.80
2019,08,14,10,31,15.90
2019,08,14,10,32,16.00
2019,08,14,10,33,16.10
2019,08,14,10,34,16.20
2019,08,14,10,35,16.30
2019,08,14,10,36,16.40
2019,08,14,10,37,16.50
2019,08,14,10,38,16.50
2019,08,14,10,39,16.60
2019,08,14,10,40,16.70
2019,08,14,10,41,16.80
2019,08,14,10,42,16.80
2019,08,14,10,43,16.90
2019,08,14,10,44,17.00
2019,08,14,10,45,17.00
2019,08,14,10,46,17.10
2019,08,14,10,47,17.20
2019,08,14,10,48,17.30
2019,08,14,10,49,17.40
2019,08,14,10,50,17.50
2019,08,14,10,51,17.60
2019,08,14,10,52,17.70
2019,08,14,10,53,17.80
2019,08,14,10,54,17.90
2019,08,14,10,55,18.10
2019,08,14,10,56,18.20
2019,08,14,10,57,18.20
2019,08,14,10,58,18.30
2019,08,14,10,59,18.40
2019,08,14,11,00,18.60
2019,08,14,11,01,18.70
2019,08,14,11,02,18.80
2019,08,14,11,03,19.00
2019,08,14,11,04,19.10
2019,08,14,11,05,19.20
2019,08,14,11,06,19.30
2019,08,14,11,07,19.40
2019,08,14,11,08,19.40
2019,08,14,11,09,19.50
2019,08,14,11,10,19.60
2019,08,14,11,11,19.70
2019,08,14,11,12,19.70
2019,08,14,11,13,19.80
2019,08,14,11,14,19.80
2019,08,14,11,15,19.80
2019,08,14,11,16,19.90
2019,08,14,11,17,19.90
2019,08,14,11,18,20.00
2019,08,14,11,19,20.00
2019,08,14,11,20,20.00
2019,08,14,11,21,20.10
2019,08,14,11,22,20.10
2019,08,14,11,23,20.10
2019,08,14,11,24,20.20
2019,08,14,11,25,20.20
2019,08,14,11,26,20.20
2019,08,14,11,27,20.20
2019,08,14,11,28,20.20
2019,08,14,11,29,20.30
2019,08,14,11,30,20.30
2019,08,14,11,31,20.30
2019,08,14,11,32,20.40
2019,08,14,11,33,20.40
2019,08,14,11,34,20.40
2019,08,14,11,35,20.40
2019,08,14,11,36,20.40
2019,08,14,11,37,20.40
2019,08,14,11,38,20.40
2019,08,14,11,39,20.50
2019,08,14,11,40,20.50
2019,08,14,11,41,20.50
2019,08,14,11,42,20.60
2019,08,14,11,43,20.60
2019,08,14,11,44,20.60
2019,08,14,11,45,20.70
2019,08,14,11,46,20.70
2019,08,14,11,47,20.80
2019,08,14,11,48,20.80
2019,08,14,11,49,20.90
2019,08,14,11,50,20.80
2019,08,14,11,51,20.70
2019,08,14,11,52,20.60
2019,08,14,11,53,20.50
2019,08,14,11,54,20.30
2019,08,14,11,55,20.10
2019,08,14,11,56,19.80
2019,08,14,11,57,19.40
2019,08,14,11,58,19.20
2019,08,14,11,59,18.90
2019,08,14,12,00,18.80
2019,08,14,12,01,18.60
2019,08,14,12,02,18.40
2019,08,14,12,03,18.20
2019,08,14,12,04,18.00
2019,08,14,12,05,17.80
2019,08,14,12,06,17.70
2019,08,14,12,07,17.60
2019,08,14,12,08,17.60
2019,08,14,12,09,17.60
2019,08,14,12,10,17.70
2019,08,14,12,11,17.70
2019,08,14,12,12,17.80
2019,08,14,12,13,17.80
2019,08,14,12,14,17.90
2019,08,14,12,15,17.90
2019,08,14,12,16,18.00
2019,08,14,12,17,18.10
2019,08,14,12,18,18.10
2019,08,14,12,19,18.10
2019,08,14,12,20,18.10
2019,08,14,12,21,18.00
2019,08,14,12,22,18.00
2019,08,14,12,23,18.10
2019,08,14,12,24,18.30
2019,08,14,12,25,18.50
2019,08,14,12,26,18.70
2019,08,14,12,27,18.80
2019,08,14,12,28,19.00
2019,08,14,12,29,19.20
2019,08,14,12,30,19.20
2019,08,14,12,31,19.30
2019,08,14,12,32,19.50
2019,08,14,12,33,19.50
2019,08,14,12,34,19.60
2019,08,14,12,35,19.70
2019,08,14,12,36,19.80
2019,08,14,12,37,19.80
2019,08,14,12,38,19.90
2019,08,14,12,39,20.00
2019,08,14,12,40,20.10
2019,08,14,12,41,20.10
2019,08,14,12,42,20.20
2019,08,14,12,43,20.30
2019,08,14,12,44,20.40
2019,08,14,12,45,20.50
2019,08,14,12,46,20.60
2019,08,14,12,47,20.60
2019,08,14,12,48,20.70
2019,08,14,12,49,20.80
2019,08,14,12,50,20.80
2019,08,14,12,51,20.90
2019,08,14,12,52,20.90
2019,08,14,12,53,20.90
2019,08,14,12,54,21.00
2019,08,14,12,55,21.10
2019,08,14,12,56,21.10
2019,08,14,12,57,21.10
2019,08,14,12,58,21.10
2019,08,14,12,59,21.20
2019,08,14,13,00,21.20
2019,08,14,13,01,21.20
2019,08,14,13,02,21.20
2019,08,14,13,03,21.20
2019,08,14,13,04,21.20
2019,08,14,13,05,21.20
2019,08,14,13,06,21.20
2019,08,14,13,07,21.20
2019,08,14,13,08,21.20
2019,08,14,13,09,21.30
2019,08,14,13,10,21.30
2019,08,14,13,11,21.40
2019,08,14,13,12,21.40
2019,08,14,13,13,21.50
2019,08,14,13,14,21.60
2019,08,14,13,15,21.60
2019,08,14,13,16,21.60
2019,08,14,13,17,21.60
2019,08,14,13,18,21.70
2019,08,14,13,19,21.70
2019,08,14,13,20,21.70
2019,08,14,13,21,21.70
2019,08,14,13,22,21.70
2019,08,14,13,23,21.70
2019,08,14,13,24,21.70
2019,08,14,13,25,21.70
2019,08,14,13,26,21.60
2019,08,14,13,27,21.60
2019,08,14,13,28,21.50
2019,08,14,13,29,21.50
2019,08,14,13,30,21.40
2019,08,14,13,31,21.30
2019,08,14,13,32,21.30
2019,08,14,13,33,21.20
2019,08,14,13,34,21.20
2019,08,14,13,35,21.30
2019,08,14,13,36,21.30
2019,08,14,13,37,21.30
2019,08,14,13,38,21.30
2019,08,14,13,39,21.40
2019,08,14,13,40,21.40
2019,08,14,13,41,21.50
2019,08,14,13,42,21.60
2019,08,14,13,43,21.60
2019,08,14,13,44,21.70
2019,08,14,13,45,21.80
2019,08,14,13,46,21.80
2019,08,14,13,47,21.90
2019,08,14,13,48,22.00
2019,08,14,13,49,22.00
2019,08,14,13,50,22.10
2019,08,14,13,51,22.20
2019,08,14,13,52,22.20
2019,08,14,13,53,22.30
2019,08,14,13,54,22.40
2019,08,14,13,55,22.40
2019,08,14,13,56,22.50
2019,08,14,13,57,22.60
2019,08,14,13,58,22.60
2019,08,14,13,59,22.70
2019,08,14,14,00,22.70
2019,08,14,14,01,22.80
2019,08,14,14,02,22.80
2019,08,14,14,03,22.80
2019,08,14,14,04,22.80
2019,08,14,14,05,22.90
2019,08,14,14,06,22.90
2019,08,14,14,07,22.90
2019,08,14,14,08,23.00
2019,08,14,14,09,23.10
2019,08,14,14,10,23.20
2019,08,14,14,11,23.20
2019,08,14,14,12,23.30
2019,08,14,14,13,23.30
2019,08,14,14,14,23.40
2019,08,14,14,15,23.40
2019,08,14,14,16,23.40
2019,08,14,14,17,23.50
2019,08,14,14,18,23.50
2019,08,14,14,19,23.50
2019,08,14,14,20,23.50
2019,08,14,14,21,23.50
2019,08,14,14,22,23.60
2019,08,14,14,23,23.60
2019,08,14,14,24,23.60
2019,08,14,14,25,23.70
2019,08,14,14,26,23.70
2019,08,14,14,27,23.70
2019,08,14,14,28,23.70
2019,08,14,14,29,23.70
2019,08,14,14,30,23.70
2019,08,14,14,31,23.80
2019,08,14,14,32,23.80
2019,08,14,14,33,23.80
2019,08,14,14,34,23.80
2019,08,14,14,35,23.80
2019,08,14,14,36,23.80
2019,08,14,14,37,23.70
2019,08,14,14,38,23.60
2019,08,14,14,39,23.60
2019,08,14,14,40,23.50
2019,08,14,14,41,23.50
2019,08,14,14,42,23.50
2019,08,14,14,43,23.50
2019,08,14,14,44,23.50
2019,08,14,14,45,23.50
2019,08,14,14,46,23.50
2019,08,14,14,47,23.50
2019,08,14,14,48,23.40
2019,08,14,14,49,23.40
2019,08,14,14,50,23.30
2019,08,14,14,51,23.30
2019,08,14,14,52,23.30
2019,08,14,14,53,23.30
2019,08,14,14,54,23.30
2019,08,14,14,55,23.30
2019,08,14,14,56,23.20
2019,08,14,14,57,23.20
2019,08,14,14,58,23.20
2019,08,14,14,59,23.20
2019,08,14,15,00,23.20
2019,08,14,15,01,23.20
2019,08,14,15,02,23.20
2019,08,14,15,03,23.20
2019,08,14,15,04,23.20
2019,08,14,15,05,23.20
2019,08,14,15,06,23.20
2019,08,14,15,07,23.20
2019,08,14,15,08,23.30
2019,08,14,15,09,23.30
2019,08,14,15,10,23.40
2019,08,14,15,11,23.50
2019,08,14,15,12,23.50
2019,08,14,15,13,23.50
2019,08,14,15,14,23.60
2019,08,14,15,15,23.60
2019,08,14,15,16,23.60
2019,08,14,15,17,23.60
2019,08,14,15,18,23.60
2019,08,14,15,19,23.60
2019,08,14,15,20,23.70
2019,08,14,15,21,23.70
2019,08,14,15,22,23.80
2019,08,14,15,23,23.80
2019,08,14,15,24,23.90
2019,08,14,15,25,23.90
2019,08,14,15,26,23.90
2019,08,14,15,27,23.90
2019,08,14,15,28,23.90
2019,08,14,15,29,23.90
2019,08,14,15,30,24.00
2019,08,14,15,31,24.00
2019,08,14,15,32,24.00
2019,08,14,15,33,24.10
2019,08,14,15,34,24.10
2019,08,14,15,35,24.10
2019,08,14,15,36,24.10
2019,08,14,15,37,24.10
2019,08,14,15,38,24.10
2019,08,14,15,39,24.20
2019,08,14,15,40,24.20
2019,08,14,15,41,24.20
2019,08,14,15,42,24.20
2019,08,14,15,43,24.20
2019,08,14,15,44,24.20
2019,08,14,15,45,24.20
2019,08,14,15,46,24.30
2019,08,14,15,47,24.30
2019,08,14,15,48,24.30
2019,08,14,15,49,24.20
2019,08,14,15,50,24.20
2019,08,14,15,51,24.00
2019,08,14,15,52,23.30
2019,08,14,15,53,22.70
2019,08,14,15,54,22.20
2019,08,14,15,55,22.00
2019,08,14,15,56,21.80
2019,08,14,15,57,21.90
2019,08,14,15,58,22.00
2019,08,14,15,59,22.20
2019,08,14,16,00,22.50
2019,08,14,16,01,22.60
2019,08,14,16,02,22.80
2019,08,14,16,03,23.00
2019,08,14,16,04,23.20
2019,08,14,16,05,23.30
2019,08,14,16,06,23.50
2019,08,14,16,07,23.60
2019,08,14,16,08,23.70
2019,08,14,16,09,23.70
2019,08,14,16,10,23.80
2019,08,14,16,11,23.80
2019,08,14,16,12,23.90
2019,08,14,16,13,24.00
2019,08,14,16,14,24.10
2019,08,14,16,15,24.10
2019,08,14,16,16,24.10
2019,08,14,16,17,24.10
2019,08,14,16,18,24.00
2019,08,14,16,19,23.80
2019,08,14,16,20,23.60
2019,08,14,16,21,23.40
2019,08,14,16,22,23.20
2019,08,14,16,23,22.70
2019,08,14,16,24,22.10
2019,08,14,16,25,21.80
2019,08,14,16,26,21.60
2019,08,14,16,27,21.50
2019,08,14,16,28,21.50
2019,08,14,16,29,21.50
2019,08,14,16,30,21.50
2019,08,14,16,31,21.30
2019,08,14,16,32,21.30
2019,08,14,16,33,21.50
2019,08,14,16,34,21.60
2019,08,14,16,35,21.80
2019,08,14,16,36,22.00
2019,08,14,16,37,22.20
2019,08,14,16,38,22.50
2019,08,14,16,39,22.70
2019,08,14,16,40,22.90
2019,08,14,16,41,23.20
2019,08,14,16,42,23.40
2019,08,14,16,43,23.60
2019,08,14,16,44,23.80
2019,08,14,16,45,24.00
2019,08,14,16,46,24.20
2019,08,14,16,47,24.30
2019,08,14,16,48,24.40
2019,08,14,16,49,24.50
2019,08,14,16,50,24.60
2019,08,14,16,51,24.60
2019,08,14,16,52,24.60
2019,08,14,16,53,24.60
2019,08,14,16,54,24.70
2019,08,14,16,55,24.70
2019,08,14,16,56,24.70
2019,08,14,16,57,24.80
2019,08,14,16,58,24.80
2019,08,14,16,59,24.80
2019,08,14,17,00,24.80
2019,08,14,17,01,24.80
2019,08,14,17,02,24.80
2019,08,14,17,03,24.80
2019,08,14,17,04,24.80
2019,08,14,17,05,24.70
2019,08,14,17,06,24.70
2019,08,14,17,07,24.70
2019,08,14,17,08,24.70
2019,08,14,17,09,24.70
2019,08,14,17,10,24.60
2019,08,14,17,11,24.60
2019,08,14,17,12,24.60
2019,08,14,17,13,24.60
2019,08,14,17,14,24.60
2019,08,14,17,15,24.60
2019,08,14,17,16,24.60
2019,08,14,17,17,24.60
2019,08,14,17,18,24.70
2019,08,14,17,19,24.70